Starlink 5577

operational
NORAD ID: 55751 Int'l Des: 2023-028 Owner: SPXS Country: US Constellation: starlink
LEOCIRCULAR

关于 Starlink 5577

正在加载描述...

实时位置

正在加载3D地球...

即将过境

高度历史

Altitude vs Time

uPlot chart will show altitude changes over time

两行轨道根数

1 55751U 23028L 25354.55066043 -.00000778 00000-0 -57435-4 0 9998
2 55751 70.0006 84.0900 0003818 274.2992 85.7731 14.98330589154184
Epoch: Dec 20, 2025 • Age: 10 hours

当前状态

高度 575.1 km
速度 7.57 km/s
星下点 -4.12°S, 179.95°E
发射日期 Mar 3, 2023
运行时间 2.8 years
类型 internet

技术详情

分类 Payload
质量 305.00 kg
干质量 290.00 kg
总质量 305.00 kg
长度 0.20 m
直径 2.80 m
跨度 9.00 m
形状 Box + pan
制造商 SPXS
平台类型 Starlink
阶段状态 In Orbit
所有者/国家 SPXS/US

大型星座

Loading constellations...